CST,Max TemperatureF,Mean TemperatureF,Min TemperatureF,Max Dew PointF,MeanDew PointF,Min DewpointF,Max Humidity, Mean Humidity, Min Humidity, Max Sea Level PressureIn, Mean Sea Level PressureIn, Min Sea Level PressureIn, Max VisibilityMiles, Mean VisibilityMiles, Min VisibilityMiles, Max Wind SpeedMPH, Mean Wind SpeedMPH, Max Gust SpeedMPH,PrecipitationIn, CloudCover, Events, WindDirDegrees
2013-1-1,48,42,35,48,42,34,100,98,76,30.09,30.04,29.99,10,5,0,18,5,,0.00,8,,338
2013-1-2,33,30,28,34,30,28,100,98,93,30.21,30.15,30.07,5,1,0,12,8,,0.00,8,,349
2013-1-3,39,31,23,28,26,19,100,84,56,30.39,30.29,30.18,10,8,3,12,4,,0.00,2,,345
2013-1-4,42,30,19,27,22,18,93,73,49,30.45,30.40,30.36,10,10,10,9,2,,0.00,0,,3
2013-1-5,46,34,21,36,25,18,93,71,43,30.39,30.32,30.24,10,10,10,8,1,,0.00,3,,211
2013-1-6,48,37,26,36,33,23,93,78,57,30.35,30.23,30.16,10,10,8,15,6,,0.00,5,,267
2013-1-7,53,38,23,28,25,21,93,73,35,30.39,30.32,30.26,10,10,8,8,4,,0.00,0,,38
2013-1-8,59,42,26,43,35,21,86,66,44,30.34,30.28,30.24,10,10,10,10,5,,0.00,0,,155
2013-1-9,57,52,48,57,52,43,100,95,82,30.41,30.36,30.29,10,7,2,8,4,,0.00,7,,110
2013-1-10,64,58,53,57,56,54,100,90,77,30.39,30.26,30.06,10,10,4,17,7,,0.00,8,,141
2013-1-11,68,64,60,63,60,57,100,87,73,30.12,30.07,30.03,10,9,4,16,12,31,0.00,7,,191
2013-1-12,66,65,64,64,62,57,100,89,73,30.09,30.03,29.93,10,9,1,18,9,25,0.00,8,,182
2013-1-13,68,52,35,63,54,36,100,89,73,30.17,30.00,29.90,10,9,3,22,12,20,0.00,7,,173
2013-1-14,37,34,30,36,32,28,100,97,93,30.31,30.21,30.15,10,6,1,16,9,,0.00,8,,8
2013-1-15,35,32,30,36,33,30,100,98,93,30.18,30.08,29.95,10,6,0,13,5,,0.00,8,,21
2013-1-16,35,34,33,36,34,32,100,99,93,30.10,30.04,29.95,10,8,1,13,6,,0.00,8,,357
2013-1-17,39,36,32,36,30,27,100,81,70,30.39,30.07,29.93,10,10,5,21,11,30,0.00,5,,6
2013-1-18,48,36,24,32,25,16,100,74,29,30.55,30.45,30.38,10,10,4,10,4,,0.00,0,,22
2013-1-19,53,38,24,30,27,21,86,57,38,30.39,30.29,30.19,10,10,10,15,6,,0.00,0,,191
2013-1-20,53,40,26,34,29,21,93,66,35,30.25,30.18,30.14,10,10,10,9,4,,0.00,0,,301
2013-1-21,39,31,23,23,16,10,86,58,36,30.26,30.20,30.13,10,10,10,15,5,,0.00,0,,332
2013-1-22,28,22,17,12,8,3,68,50,40,30.39,30.32,30.24,10,10,10,9,4,,0.00,3,,349
2013-1-23,50,39,28,36,21,9,76,53,37,30.35,30.26,30.16,10,10,10,13,3,,0.00,4,,224
2013-1-24,44,36,28,36,17,7,81,54,33,30.41,30.32,30.19,10,10,10,16,8,,0.00,2,,30
2013-1-25,42,37,32,41,31,10,100,81,35,30.26,30.15,30.07,10,6,1,17,8,,0.00,8,,214
2013-1-26,46,37,28,32,29,27,100,79,50,30.33,30.28,30.21,10,8,3,9,4,,0.00,3,,7
2013-1-27,48,38,28,39,32,27,93,71,50,30.35,30.31,30.26,10,10,7,15,5,,0.00,4,,146
2013-1-28,57,50,44,50,43,32,88,74,57,30.31,30.24,30.19,10,10,9,15,9,,0.00,3,,160
2013-1-29,66,57,48,61,55,46,100,87,77,30.19,30.02,29.73,10,10,4,17,8,29,0.00,6,,159
2013-1-30,69,51,33,61,47,23,100,84,65,29.91,29.65,29.55,10,8,2,26,15,47,0.00,7,,221
2013-1-31,42,36,30,32,24,21,87,63,49,30.16,30.05,29.92,10,10,4,22,12,26,0.00,4,,252